Weather History for Monroe, MI

Change the Weather History Date:

Friday, February 8, 2013

  Actual Average Record
Temperature  
Mean Temperature 26 °F -  
Max Temperature 33 °F 30 °F 63 °F (1937)
Min Temperature 19 °F 14 °F -6 °F (1934)
Degree Days  
Heating Degree Days 39    
Moisture  
Dew Point 24 °F    
Average Humidity 85    
Maximum Humidity 100    
Minimum Humidity 69    
Precipitation  
Precipitation 0.00 in - - ()
Sea Level Pressure  
Sea Level Pressure 30.05 in    
Wind  
Wind Speed 8 mph (NNW)    
Max Wind Speed 15 mph    
Max Gust Speed 22 mph    
Visibility 8 miles    
Events Snow    
Averages and records for this station are not official NWS values.
T = Trace of Precipitation, MM = Missing Value Source: NWS Daily Summary

Daily Weather History Graph

Daily Weather History Graph

Search for Another Location

Airport:

Trip Planner

Search our weather history database for the weather conditions in past years. The results will help you decide how hot, cold, wet, or windy it might be!

Date:

Astronomy

Feb. 08, 2013 Rise Set
Actual Time 7:38 AM EST 5:58 PM EST
Civil Twilight 7:09 AM EST 6:27 PM EST
Nautical Twilight 6:36 AM EST 7:00 PM EST
Astronomical Twilight 6:03 AM EST 7:32 PM EST
Moon 6:06 AM EST (2/8) 4:29 PM EST (2/8)
Length of Visible Light 11h 18m
Length of Day
10h 19m
Waning Crescent, 3% of the Moon is Illuminated
Feb 8
Waning Crescent
Feb 10
New
Feb 17
First Quarter
Feb 25
Full
Mar 4
Last Quarter

Hourly Weather History & Observations

Time (EST) Temp. Windchill Dew Point Humidity Pressure Visibility Wind Dir Wind Speed Gust Speed Precip Events Conditions
1:32 AM 33.8 °F 26.4 °F 32.0 °F 93% 29.77 in 5.0 mi ENE 9.2 mph - N/A   Overcast
2:12 AM 33.8 °F 28.6 °F 32.0 °F 93% 29.76 in 5.0 mi ENE 5.8 mph - N/A   Overcast
2:32 AM 33.8 °F 28.6 °F 32.0 °F 93% 29.76 in 4.0 mi ENE 5.8 mph - N/A   Overcast
2:52 AM 33.8 °F 28.6 °F 32.0 °F 93% 29.74 in 4.0 mi ENE 5.8 mph - N/A   Overcast
3:12 AM 33.8 °F 30.8 °F 33.8 °F 100% 29.74 in 4.0 mi NE 3.5 mph - N/A   Overcast
3:32 AM 33.8 °F - 33.8 °F 100% 29.73 in 3.0 mi Calm Calm - N/A Snow Light Snow
4:32 AM 33.8 °F 30.8 °F 33.8 °F 100% 29.73 in 2.5 mi NNW 3.5 mph - N/A Snow Light Snow
5:33 AM 33.8 °F 27.0 °F 32.0 °F 93% 29.75 in 4.0 mi NNW 8.1 mph - N/A   Overcast
5:53 AM 32.0 °F 25.6 °F 30.2 °F 93% 29.76 in 5.0 mi NW 6.9 mph - N/A   Overcast
6:33 AM 30.2 °F 23.4 °F 30.2 °F 100% 29.78 in 5.0 mi NW 6.9 mph - N/A   Overcast
6:53 AM 30.2 °F 22.6 °F 30.2 °F 100% 29.80 in 2.5 mi NW 8.1 mph - N/A   Overcast
7:13 AM 30.2 °F 21.9 °F 30.2 °F 100% 29.81 in 4.0 mi NW 9.2 mph - N/A   Overcast
7:33 AM 30.2 °F 22.6 °F 28.4 °F 93% 29.82 in 5.0 mi NW 8.1 mph - N/A Snow Light Snow
7:53 AM 30.2 °F 21.9 °F 30.2 °F 100% 29.83 in 2.5 mi NNW 9.2 mph - N/A Snow Light Snow
8:34 AM 30.2 °F 20.8 °F 30.2 °F 100% 29.86 in 1.5 mi NNW 11.5 mph - N/A Snow Light Snow
8:54 AM 30.2 °F 21.3 °F 30.2 °F 100% 29.87 in 0.5 mi NNW 10.4 mph - N/A Snow Light Snow
9:14 AM 30.2 °F 21.9 °F 28.4 °F 93% 29.89 in 1.2 mi NNW 9.2 mph - N/A Snow Light Snow
9:54 AM 30.2 °F 20.2 °F 26.6 °F 86% 29.92 in 10.0 mi NNW 12.7 mph 16.1 mph N/A   Overcast
10:14 AM 30.2 °F 20.2 °F 26.6 °F 86% 29.93 in 10.0 mi NNW 12.7 mph - N/A   Overcast
10:54 AM 30.2 °F 21.3 °F 26.6 °F 86% 29.96 in 10.0 mi NNW 10.4 mph 18.4 mph N/A   Overcast
11:14 AM 30.2 °F 19.8 °F 24.8 °F 80% 29.98 in 10.0 mi NNW 13.8 mph 18.4 mph N/A   Overcast
11:55 AM 30.2 °F 19.8 °F 24.8 °F 80% 30.01 in 10.0 mi North 13.8 mph 21.9 mph N/A   Overcast
12:15 PM 28.4 °F 18.0 °F 24.8 °F 86% 30.02 in 10.0 mi NW 12.7 mph - N/A   Overcast
12:35 PM 28.4 °F 19.1 °F 24.8 °F 86% 30.03 in 10.0 mi NNW 10.4 mph - N/A   Overcast
12:55 PM 28.4 °F 17.0 °F 23.0 °F 80% 30.05 in 10.0 mi NNW 15.0 mph 19.6 mph N/A   Overcast
1:15 PM 28.4 °F 17.5 °F 23.0 °F 80% 30.06 in 10.0 mi NNW 13.8 mph 18.4 mph N/A   Overcast
1:35 PM 28.4 °F 17.5 °F 23.0 °F 80% 30.07 in 10.0 mi NW 13.8 mph - N/A   Overcast
1:55 PM 28.4 °F 17.5 °F 21.2 °F 74% 30.07 in 10.0 mi NNW 13.8 mph 20.7 mph N/A   Overcast
2:15 PM 28.4 °F 17.0 °F 21.2 °F 74% 30.08 in 10.0 mi NNW 15.0 mph 20.7 mph N/A   Overcast
2:36 PM 28.4 °F 18.0 °F 23.0 °F 80% 30.09 in 10.0 mi NNW 12.7 mph 17.3 mph N/A   Overcast
2:56 PM 28.4 °F 18.5 °F 23.0 °F 80% 30.09 in 10.0 mi NNW 11.5 mph - N/A   Overcast
3:11 PM 28.4 °F 19.1 °F 23.0 °F 80% 30.10 in 10.0 mi NNW 10.4 mph - N/A   Overcast
3:31 PM 28.4 °F 19.7 °F 23.0 °F 80% 30.11 in 10.0 mi NW 9.2 mph - N/A   Overcast
3:51 PM 28.4 °F 19.1 °F 23.0 °F 80% 30.12 in 10.0 mi NNW 10.4 mph - N/A   Overcast
4:11 PM 28.4 °F 18.5 °F 21.2 °F 74% 30.13 in 10.0 mi NNW 11.5 mph - N/A   Overcast
4:31 PM 28.4 °F 19.1 °F 23.0 °F 80% 30.14 in 10.0 mi NNW 10.4 mph - N/A   Overcast
4:51 PM 28.4 °F 20.4 °F 21.2 °F 74% 30.16 in 10.0 mi NNW 8.1 mph 19.6 mph N/A   Overcast
5:11 PM 28.4 °F 19.1 °F 23.0 °F 80% 30.17 in 10.0 mi NNW 10.4 mph - N/A   Overcast
5:31 PM 28.4 °F 18.5 °F 21.2 °F 74% 30.18 in 10.0 mi NNW 11.5 mph - N/A   Overcast
5:52 PM 28.4 °F 18.5 °F 21.2 °F 74% 30.19 in 10.0 mi North 11.5 mph 16.1 mph N/A   Overcast
6:32 PM 26.6 °F 19.1 °F 21.2 °F 80% 30.22 in 10.0 mi NNW 6.9 mph - N/A   Overcast
6:52 PM 26.6 °F 21.2 °F 21.2 °F 80% 30.22 in 10.0 mi NNW 4.6 mph - N/A   Overcast
7:12 PM 26.6 °F 17.5 °F 19.4 °F 74% 30.23 in 10.0 mi NNW 9.2 mph - N/A   Scattered Clouds
7:32 PM 26.6 °F 19.1 °F 19.4 °F 74% 30.24 in 10.0 mi North 6.9 mph - N/A   Clear
7:52 PM 26.6 °F 19.1 °F 19.4 °F 74% 30.25 in 10.0 mi North 6.9 mph - N/A   Mostly Cloudy
8:12 PM 26.6 °F 16.8 °F 19.4 °F 74% 30.26 in 10.0 mi North 10.4 mph - N/A   Overcast
8:32 PM 26.6 °F 16.8 °F 17.6 °F 69% 30.27 in 10.0 mi North 10.4 mph 17.3 mph N/A   Mostly Cloudy
8:53 PM 26.6 °F 18.2 °F 19.4 °F 74% 30.27 in 10.0 mi NNW 8.1 mph - N/A   Mostly Cloudy
9:13 PM 24.8 °F 17.9 °F 17.6 °F 74% 30.28 in 10.0 mi NNW 5.8 mph - N/A   Scattered Clouds
9:33 PM 24.8 °F 17.9 °F 19.4 °F 80% 30.28 in 10.0 mi NW 5.8 mph - N/A   Mostly Cloudy
9:53 PM 24.8 °F 20.5 °F 17.6 °F 74% 30.29 in 10.0 mi NNW 3.5 mph - N/A   Mostly Cloudy
10:13 PM 21.2 °F - 17.6 °F 86% 30.31 in 10.0 mi Calm Calm - N/A   Clear
10:33 PM 21.2 °F - 17.6 °F 86% 30.31 in 10.0 mi Calm Calm - N/A   Clear
10:53 PM 19.4 °F - 15.8 °F 86% 30.31 in 10.0 mi Calm Calm - N/A   Clear
11:13 PM 19.4 °F 14.3 °F 15.8 °F 86% 30.31 in 10.0 mi WNW 3.5 mph - N/A   Clear
11:33 PM 19.4 °F 12.8 °F 15.8 °F 86% 30.32 in 10.0 mi WNW 4.6 mph - N/A   Clear
11:54 PM 19.4 °F 12.8 °F 15.8 °F 86% 30.32 in 10.0 mi NW 4.6 mph - N/A   Clear